When you browse on this site, cookies collect data to enhance your experience and personalize the content and advertising you see.
Visit our Privacy Policy to learn more. By continuing to use the site, you agree to this use of cookies and data.
  • In Hungary
  • List of Countries
  • For 7 days
  • Water Temperature
  • Weather Map
  • News
  • Weather Widgets
  • user-avatar
    Login

    Hourly Weather Snovsk (Schors)

    Today, 15 December, Sunday

    Time Temperature Precipitation Wind Pressure Humidity
    00:00 0°C° 0.2 mm 5 mps 743 mmHg 93%
    01:00 +1°C° 0.2 mm 5 mps 743 mmHg 94%
    02:00 0°C° 0 mm 4 mps 743 mmHg 91%
    03:00 +1°C° 0.3 mm 4 mps 742 mmHg 92%
    04:00 +1°C° 0.3 mm 5 mps 742 mmHg 94%
    05:00 +1°C° 0.3 mm 5 mps 741 mmHg 95%
    06:00 +1°C° 0.7 mm 5 mps 742 mmHg 95%
    07:00 +1°C° 0.7 mm 4 mps 742 mmHg 95%
    08:00 +3°C° 0.7 mm 4 mps 742 mmHg 96%
    09:00 +3°C° 1 mm 4 mps 742 mmHg 95%
    10:00 +3°C° 1 mm 3 mps 742 mmHg 95%
    11:00 +3°C° 1 mm 3 mps 742 mmHg 95%
    12:00 +4°C° 0 mm 3 mps 742 mmHg 89%
    13:00 +4°C° 0 mm 4 mps 743 mmHg 82%
    14:00 +4°C° 0 mm 4 mps 743 mmHg 76%
    15:00 +3°C° 0 mm 4 mps 744 mmHg 79%
    16:00 +3°C° 0 mm 3 mps 745 mmHg 81%
    17:00 +2°C° 0 mm 3 mps 745 mmHg 84%
    18:00 +2°C° 0 mm 3 mps 746 mmHg 84%
    19:00 +3°C° 0 mm 2 mps 747 mmHg 84%
    20:00 +3°C° 0 mm 2 mps 747 mmHg 84%
    21:00 +2°C° 0 mm 3 mps 747 mmHg 86%
    22:00 +2°C° 0 mm 3 mps 748 mmHg 88%
    23:00 +1°C° 0 mm 3 mps 748 mmHg 89%

    Tomorrow, 16 December, Monday

    Time Temperature Precipitation Wind Pressure Humidity
    00:00 +1°C° 0 mm 3 mps 748 mmHg 88%
    01:00 0°C° 0 mm 4 mps 748 mmHg 87%
    02:00 0°C° 0 mm 4 mps 748 mmHg 86%
    03:00 0°C° 0 mm 4 mps 748 mmHg 87%
    04:00 +1°C° 0 mm 4 mps 748 mmHg 88%
    05:00 +1°C° 0 mm 5 mps 748 mmHg 89%
    06:00 +1°C° 0 mm 4 mps 748 mmHg 88%
    07:00 +1°C° 0 mm 4 mps 749 mmHg 88%
    08:00 +2°C° 0 mm 3 mps 749 mmHg 87%
    09:00 +3°C° 0 mm 4 mps 749 mmHg 86%
    10:00 +3°C° 0 mm 4 mps 750 mmHg 84%
    11:00 +4°C° 0 mm 4 mps 750 mmHg 82%
    12:00 +4°C° 0 mm 4 mps 750 mmHg 80%
    13:00 +4°C° 0 mm 4 mps 750 mmHg 77%
    14:00 +5°C° 0 mm 3 mps 750 mmHg 74%
    15:00 +4°C° 0 mm 3 mps 751 mmHg 79%
    16:00 +3°C° 0 mm 3 mps 751 mmHg 84%
    17:00 +2°C° 0 mm 3 mps 751 mmHg 89%
    18:00 +2°C° 0 mm 3 mps 751 mmHg 90%
    19:00 +2°C° 0 mm 3 mps 752 mmHg 90%
    20:00 +3°C° 0 mm 2 mps 752 mmHg 90%
    21:00 +3°C° 0 mm 2 mps 752 mmHg 90%
    22:00 +2°C° 0 mm 2 mps 752 mmHg 91%
    23:00 +2°C° 0 mm 2 mps 752 mmHg 91%

    Day after tomorrow, 17 December, Tuesday

    Time Temperature Precipitation Wind Pressure Humidity
    00:00 +2°C° 0 mm 2 mps 752 mmHg 91%
    01:00 +2°C° 0 mm 2 mps 753 mmHg 91%
    02:00 +3°C° 0 mm 1 mps 753 mmHg 91%
    03:00 +3°C° 0 mm 1 mps 753 mmHg 92%
    04:00 +2°C° 0 mm 2 mps 752 mmHg 92%
    05:00 +2°C° 0 mm 2 mps 752 mmHg 92%
    06:00 +2°C° 0 mm 2 mps 752 mmHg 92%
    07:00 +2°C° 0 mm 3 mps 752 mmHg 92%
    08:00 +2°C° 0 mm 3 mps 752 mmHg 92%
    09:00 +2°C° 0 mm 3 mps 752 mmHg 88%
    10:00 +3°C° 0 mm 4 mps 752 mmHg 85%
    11:00 +4°C° 0 mm 4 mps 752 mmHg 81%
    12:00 +4°C° 0 mm 4 mps 752 mmHg 80%
    13:00 +5°C° 0 mm 4 mps 751 mmHg 79%
    14:00 +5°C° 0 mm 4 mps 751 mmHg 79%
    15:00 +5°C° 0 mm 4 mps 751 mmHg 80%
    16:00 +4°C° 0 mm 4 mps 751 mmHg 82%
    17:00 +4°C° 0 mm 4 mps 751 mmHg 84%
    18:00 +4°C° 0 mm 4 mps 750 mmHg 84%
    19:00 +4°C° 0 mm 4 mps 750 mmHg 84%
    20:00 +4°C° 0 mm 4 mps 750 mmHg 85%
    21:00 +3°C° 0 mm 4 mps 750 mmHg 85%
    22:00 +3°C° 0 mm 4 mps 750 mmHg 86%
    23:00 +3°C° 0 mm 3 mps 750 mmHg 86%

    18 December, Wednesday

    Time Temperature Precipitation Wind Pressure Humidity
    00:00 +3°C° 0 mm 3 mps 750 mmHg 86%
    01:00 +2°C° 0 mm 3 mps 750 mmHg 87%
    02:00 +2°C° 0 mm 3 mps 750 mmHg 87%
    03:00 +2°C° 0 mm 3 mps 750 mmHg 87%
    04:00 +2°C° 0 mm 3 mps 750 mmHg 88%
    05:00 +3°C° 0 mm 2 mps 750 mmHg 88%
    06:00 +3°C° 0 mm 2 mps 750 mmHg 88%
    07:00 +3°C° 0 mm 2 mps 750 mmHg 88%
    08:00 +3°C° 0 mm 2 mps 750 mmHg 88%
    09:00 +4°C° 0 mm 2 mps 750 mmHg 85%
    10:00 +4°C° 0 mm 2 mps 750 mmHg 82%
    11:00 +5°C° 0 mm 2 mps 751 mmHg 79%
    12:00 +5°C° 0 mm 2 mps 750 mmHg 79%
    13:00 +6°C° 0 mm 2 mps 750 mmHg 78%
    14:00 +6°C° 0 mm 2 mps 750 mmHg 78%
    15:00 +5°C° 0 mm 2 mps 750 mmHg 81%
    16:00 +5°C° 0 mm 2 mps 750 mmHg 85%
    17:00 +4°C° 0 mm 2 mps 750 mmHg 88%
    18:00 +4°C° 0 mm 2 mps 750 mmHg 88%
    19:00 +4°C° 0 mm 2 mps 750 mmHg 89%
    20:00 +4°C° 0 mm 2 mps 750 mmHg 89%
    21:00 +3°C° 0 mm 2 mps 750 mmHg 89%
    22:00 +3°C° 0 mm 2 mps 750 mmHg 89%
    23:00 +3°C° 0 mm 2 mps 750 mmHg 89%

    19 December, Thursday

    Time Temperature Precipitation Wind Pressure Humidity
    00:00 +3°C° 0 mm 2 mps 750 mmHg 89%
    01:00 +3°C° 0 mm 2 mps 750 mmHg 89%
    02:00 +2°C° 0 mm 3 mps 750 mmHg 89%
    03:00 +2°C° 0 mm 3 mps 749 mmHg 88%
    04:00 +2°C° 0 mm 3 mps 749 mmHg 88%
    05:00 +2°C° 0 mm 3 mps 749 mmHg 87%
    06:00 +2°C° 0 mm 3 mps 749 mmHg 87%
    07:00 +2°C° 0 mm 3 mps 749 mmHg 87%
    08:00 +1°C° 0 mm 4 mps 748 mmHg 87%
    09:00 +3°C° 0 mm 4 mps 748 mmHg 83%
    10:00 +4°C° 0 mm 4 mps 748 mmHg 79%
    11:00 +5°C° 0 mm 4 mps 749 mmHg 76%
    12:00 +5°C° 0 mm 4 mps 748 mmHg 76%
    13:00 +6°C° 0 mm 4 mps 748 mmHg 76%
    14:00 +6°C° 0 mm 4 mps 747 mmHg 76%
    15:00 +5°C° 0 mm 3 mps 747 mmHg 79%
    16:00 +5°C° 0 mm 3 mps 747 mmHg 82%
    17:00 +4°C° 0 mm 3 mps 747 mmHg 85%
    18:00 +4°C° 0 mm 3 mps 747 mmHg 87%
    19:00 +5°C° 0 mm 2 mps 747 mmHg 89%
    20:00 +4°C° 0 mm 2 mps 747 mmHg 90%
    21:00 +4°C° 0 mm 2 mps 748 mmHg 91%
    22:00 +4°C° 0 mm 2 mps 748 mmHg 93%
    23:00 +4°C° 0 mm 2 mps 748 mmHg 94%

    20 December, Friday

    Time Temperature Precipitation Wind Pressure Humidity
    00:00 +4°C° 0 mm 2 mps 748 mmHg 94%
    01:00 +3°C° 0 mm 2 mps 748 mmHg 95%
    02:00 +3°C° 0 mm 2 mps 748 mmHg 95%
    03:00 +2°C° 0 mm 2 mps 748 mmHg 93%
    04:00 +2°C° 0 mm 2 mps 748 mmHg 92%
    05:00 +2°C° 0 mm 2 mps 748 mmHg 91%
    06:00 +2°C° 0 mm 2 mps 748 mmHg 87%
    07:00 +2°C° 0 mm 2 mps 748 mmHg 83%
    08:00 +2°C° 0 mm 2 mps 748 mmHg 80%
    09:00 +2°C° 0 mm 2 mps 749 mmHg 78%
    10:00 +3°C° 0 mm 2 mps 749 mmHg 76%
    11:00 +2°C° 0 mm 3 mps 749 mmHg 73%
    12:00 +2°C° 0 mm 3 mps 749 mmHg 72%
    13:00 +2°C° 0 mm 3 mps 748 mmHg 70%
    14:00 +2°C° 0 mm 3 mps 748 mmHg 69%
    15:00 +2°C° 0 mm 3 mps 748 mmHg 70%
    16:00 +2°C° 0 mm 3 mps 748 mmHg 71%
    17:00 +1°C° 0 mm 3 mps 748 mmHg 71%
    18:00 +1°C° 0 mm 3 mps 748 mmHg 71%
    19:00 +1°C° 0 mm 3 mps 748 mmHg 71%
    20:00 +1°C° 0 mm 3 mps 748 mmHg 70%
    21:00 +1°C° 0 mm 3 mps 748 mmHg 71%
    22:00 +1°C° 0 mm 3 mps 748 mmHg 72%
    23:00 0°C° 0 mm 3 mps 748 mmHg 72%
    Show more